[[{"header":{"parameterUnit":"m.s-1","parameterCategory":1,"la1":30.2991,"la2":30.254,"lo1":-89.0895,"lo2":-89.0444,"dy":0.0017,"dx":0.0017,"nx":28,"ny":28,"refTime":"2024-04-08T03:00:00:Z","depth":0,"parameterNumber":2,"parameterNumberName":"U-component_of_WINDS"},"data":[0,0,0,0,0,0,0,0,0,0,0,0,0,0,0,0,0,0,0,0,0,0,0,0,0,0,0,0,0,0,0,0,0,0,0,0,0,0,0,0,0,0,0,0,0,0,0,0,0,0,0,0,0,0,0,0,0,0,-5.8967,-5.8968,0,-5.9045,-5.9045,-5.9046,-5.8988,-5.8986,-5.8983,-5.8981,-5.906,-5.9064,-5.9068,0,0,0,0,0,0,0,0,0,0,0,0,0,-5.8768,-5.8772,-5.8967,-5.8968,-5.8969,-5.9044,-5.9046,-5.9047,-5.8989,-5.8986,-5.8983,-5.898,-5.9058,-5.9064,-5.9069,0,0,0,0,0,0,0,0,0,0,0,0,0,-5.8851,-5.8773,-5.8967,-5.8949,-5.8948,-5.9044,-5.9046,-5.9047,-5.8989,-5.8986,-5.8982,-5.8978,-5.9057,-5.9063,-5.907,-5.9187,0,0,-5.909,-5.9093,0,0,0,0,0,0,0,0,-5.8846,-5.8858,-5.8951,-5.8951,-5.895,-5.9003,-5.9004,-5.9094,-5.899,-5.8974,-5.8981,-5.8976,-5.9044,-5.9051,-5.9074,-5.9191,-5.9194,-5.9091,-5.9095,-5.9098,-5.9099,0,0,0,0,0,0,0,-5.8841,-5.8855,-5.8998,-5.8952,-5.8952,-5.8937,-5.8945,-5.9021,-5.9029,-5.8975,-5.8971,-5.8981,-5.9043,-5.9068,-5.9076,-5.9195,-5.909,-5.9096,-5.9101,-5.9103,-5.941,-5.9414,0,0,0,0,0,0,-5.8837,-5.885,-5.8995,-5.9,-5.8888,-5.8944,-5.8952,-5.899,-5.9028,-5.903,-5.8984,-5.8978,-5.9058,-5.9068,-5.9078,-5.9216,-5.9098,-5.9104,-5.9108,-5.9406,-5.9411,-5.9415,0,0,0,0,0,0,-5.8833,-5.885,-5.8992,-5.8924,-5.8941,-5.8951,-5.8994,-5.8993,-5.9018,-5.9035,-5.9036,-5.9008,-5.9056,-5.9069,-5.916,-5.9218,-5.9107,-5.9113,-5.9401,-5.9407,-5.9413,-5.9493,0,0,0,0,0,0,-5.8827,-5.8849,-5.8894,-5.8926,-5.8945,-5.9073,-5.8997,-5.8997,-5.903,-5.9022,-5.9058,-5.906,-5.9054,-5.915,-5.9167,-5.9225,-5.9118,-5.9396,-5.9404,-5.9411,-5.9485,-5.9501,-5.9515,0,0,0,0,0,-5.882,-5.8913,-5.8896,-5.8914,-5.9001,-5.9076,-5.9087,-5.9078,-5.9035,-5.9079,-5.909,-5.9059,-5.921,-5.916,-5.9178,-5.9239,-5.9392,-5.9402,-5.9411,-5.9479,-5.9498,-5.9515,0,0,0,0,0,0,-5.8887,-5.8917,-5.8898,-5.9005,-5.9038,-5.9066,-5.9122,-5.9099,-5.9146,-5.9137,-5.9124,-5.9132,-5.9227,-5.9243,-5.9187,-5.9354,-5.9294,-5.9307,-5.9339,-5.9358,-5.9373,-5.9365,-5.9124,0,0,0,0,0,-5.8915,-5.8974,-5.8997,-5.9088,-5.9106,-5.9112,-5.9144,-5.9134,-5.9168,-5.9182,-5.92,-5.9234,-5.9289,-5.9325,-5.9377,-5.9489,-5.9494,-5.954,-5.9555,-5.9567,-5.9577,-5.9636,-5.9655,-5.9446,-5.9446,-5.9446,0,0,-5.8971,-5.8995,-5.9033,-5.9102,-5.9127,-5.9187,-5.9124,-5.9191,-5.9235,-5.9192,-5.9278,-5.9293,-5.9331,-5.9432,-5.9478,-5.9448,-5.9637,-5.9579,-5.9588,-5.9592,-5.9647,-5.9667,-5.9685,-5.9452,-5.9451,-5.945,0,0,-5.9104,-5.9129,-5.9207,-5.9234,-5.9272,-5.9276,-5.9295,-5.9327,-5.9334,-5.9421,-5.939,-5.9443,-5.9539,-5.9566,-5.9592,-5.9738,-5.9709,-5.9755,-5.9831,-5.9888,-5.9905,-5.9919,-5.9968,-5.9986,-5.9766,-5.9767,-5.9767,0,-5.9169,-5.9259,-5.925,-5.9319,-5.9349,-5.9315,-5.9393,-5.9419,-5.9473,-5.9495,-5.9462,-5.958,-5.9603,-5.9709,-5.9745,-5.9769,-5.9788,-5.9749,-5.9903,-5.9918,-5.9931,-5.9977,-5.9996,-5.9772,-5.9771,-5.9771,-5.977,0,-5.9335,-5.9399,-5.9457,-5.9509,-5.9547,-5.9621,-5.9622,-5.9662,-5.965,-5.9657,-5.9745,-5.9772,-5.9827,-5.9853,-5.9842,-5.9958,-5.9938,-5.9905,-5.9843,-5.9956,-5.9999,-6.0017,-5.9779,-5.9777,-5.9776,-5.9774,0,0,-5.9509,-5.9557,-5.9578,-5.9601,-5.9642,-5.969,-5.9763,-5.9817,-5.985,-5.989,-5.9948,-6.003,-5.9999,-6.003,-6.0022,-6.0073,-6.0183,-6.0033,-6.0033,-6.0056,-6.0309,-6.0331,-6.0352,-6.0166,-6.017,-6.0173,-6.0305,0,-5.9641,-5.9766,-5.976,-5.9876,-5.9933,-5.9903,-5.9965,-5.9997,-6.0007,-6.0056,-6.0067,-6.0124,-6.008,-6.0098,-6.0147,-6.0159,-6.0233,-6.015,-6.0219,-6.0221,-6.0206,-6.0375,-6.0398,-6.0521,-6.0322,-6.0325,-6.0327,0,-5.9811,-5.9855,-5.9977,-6.0009,-6.0033,-6.0089,-6.0138,-6.0187,-6.0223,-6.0226,-6.026,-6.0245,-6.0317,-6.0257,-6.0356,-6.03,-6.0329,-6.0339,-6.0344,-6.0346,-6.0278,-6.0378,-6.0561,-6.0578,-6.0354,-6.0352,-6.035,0,-5.9921,-6.0012,-6.0096,-6.0117,-6.0157,-6.0197,-6.0216,-6.0248,-6.0281,-6.0325,-6.0346,-6.0398,-6.0426,-6.0467,-6.0465,-6.0422,-6.0564,-6.0505,-6.0567,-6.0567,-6.0594,-6.0592,-6.078,-6.062,-6.062,-6.062,-6.0619,0,-6.0066,-6.0141,-6.0145,-6.0197,-6.028,-6.0274,-6.0356,-6.0371,-6.04,-6.0453,-6.0432,-6.0482,-6.0479,-6.053,-6.053,-6.0611,-6.0624,-6.0628,-6.0626,-6.0627,-6.0626,-6.0642,-6.0632,-6.0625,-6.0624,-6.0623,-6.0622,0,-6.0201,-6.0207,-6.0296,-6.0328,-6.0338,-6.0397,-6.0424,-6.0472,-6.0481,-6.0548,-6.0564,-6.0577,-6.0636,-6.064,-6.0708,-6.0708,-6.0805,-6.0796,-6.0792,-6.0789,-6.0849,-6.0842,-6.1051,-6.1077,-6.0904,-6.0906,-6.0907,0,-6.0291,-6.0347,-6.0385,-6.0419,-6.044,-6.0496,-6.053,-6.0527,-6.0563,-6.0609,-6.0651,-6.0709,-6.0754,-6.085,-6.0865,-6.0917,-6.0907,-6.0977,-6.0914,-6.0913,-6.0903,-6.0898,-6.0902,-6.0987,-6.0989,-6.0991,-6.0992,0,-6.0449,-6.0449,-6.0499,-6.055,-6.0591,-6.0631,-6.0668,-6.0697,-6.0699,-6.0741,-6.0801,-6.0836,-6.0906,-6.0962,-6.1014,-6.1033,-6.1012,-6.1012,-6.1028,-6.1028,-6.1022,-6.1022,-6.082,-6.1006,-6.1005,-6.1004,-6.1003,-6.1002,-6.0561,-6.061,-6.0643,-6.0699,-6.0727,-6.0763,-6.0809,-6.0824,-6.0874,-6.093,-6.0927,-6.0993,-6.1027,-6.1094,-6.1117,-6.1169,-6.1145,-6.117,-6.1175,-6.118,-6.1184,-6.1018,-6.1179,-6.1178,-6.1178,-6.1178,-6.1177,0,-6.0715,-6.0736,-6.0787,-6.084,-6.0883,-6.0863,-6.0903,-6.094,-6.0999,-6.1033,-6.1078,-6.1147,-6.1202,-6.1223,-6.1276,-6.1313,-6.1305,-6.1327,-6.1322,-6.1326,-6.1205,-6.1183,-6.1332,-6.1332,-6.1332,-6.1332,-6.1332,-6.1332,-6.0799,-6.0879,-6.0884,-6.0978,-6.0998,-6.1062,-6.1087,-6.1119,-6.1146,-6.1224,-6.1269,-6.1283,-6.1312,-6.1367,-6.1416,-6.1421,-6.144,-6.1465,-6.1465,-6.1351,-6.1335,-6.132,-6.1299,-6.147,-6.1471,-6.1582,-6.1583,-6.1584]},{"header":{"parameterUnit":"m.s-1","parameterCategory":1,"la1":30.2991,"la2":30.254,"lo1":-89.0895,"lo2":-89.0444,"dy":0.0017,"dx":0.0017,"nx":28,"ny":28,"refTime":"2024-04-08T03:00:00:Z","depth":0,"parameterNumber":3,"parameterNumberName":"V-component_of_WINDS"},"data":[0,0,0,0,0,0,0,0,0,0,0,0,0,0,0,0,0,0,0,0,0,0,0,0,0,0,0,0,0,0,0,0,0,0,0,0,0,0,0,0,0,0,0,0,0,0,0,0,0,0,0,0,0,0,0,0,0,0,3.0897,3.0898,0,3.0921,3.0921,3.0922,3.0892,3.0891,3.089,3.0889,3.0911,3.0913,3.0915,0,0,0,0,0,0,0,0,0,0,0,0,0,3.0826,3.0827,3.0897,3.0898,3.0898,3.0921,3.0921,3.0922,3.0893,3.0891,3.089,3.0889,3.0911,3.0913,3.0915,0,0,0,0,0,0,0,0,0,0,0,0,0,3.0854,3.0828,3.0897,3.0886,3.0886,3.0921,3.0921,3.0922,3.0893,3.0891,3.089,3.0888,3.091,3.0913,3.0915,3.0962,0,0,3.0922,3.0923,0,0,0,0,0,0,0,0,3.0852,3.0857,3.0888,3.0887,3.0886,3.0902,3.0904,3.0935,3.0893,3.089,3.0889,3.0887,3.091,3.0912,3.092,3.0963,3.0964,3.0922,3.0924,3.0925,3.0926,0,0,0,0,0,0,0,3.085,3.0855,3.0907,3.0888,3.0887,3.088,3.0882,3.091,3.0908,3.089,3.0888,3.0891,3.0909,3.0918,3.092,3.0964,3.0922,3.0924,3.0926,3.0927,3.1048,3.105,0,0,0,0,0,0,3.085,3.0854,3.0906,3.0907,3.0865,3.0882,3.0885,3.0899,3.0908,3.0908,3.0893,3.089,3.0914,3.0917,3.0921,3.0977,3.0925,3.0927,3.0928,3.1046,3.1048,3.105,0,0,0,0,0,0,3.0849,3.0855,3.0905,3.088,3.0886,3.0885,3.0901,3.09,3.0909,3.091,3.0909,3.0902,3.0913,3.0917,3.0952,3.0977,3.0928,3.093,3.1044,3.1047,3.1049,3.1089,0,0,0,0,0,0,3.0847,3.0855,3.0872,3.0881,3.0887,3.0936,3.0903,3.0902,3.0913,3.091,3.0919,3.0918,3.0912,3.0949,3.0955,3.098,3.0932,3.1042,3.1045,3.1048,3.1085,3.1093,3.1099,0,0,0,0,0,3.0844,3.0882,3.0874,3.088,3.091,3.0938,3.0942,3.0934,3.0915,3.0933,3.0934,3.0918,3.0974,3.0953,3.0959,3.0985,3.104,3.1044,3.1048,3.1082,3.1091,3.1099,0,0,0,0,0,0,3.0875,3.0883,3.0873,3.0915,3.0926,3.0933,3.0955,3.0944,3.096,3.0956,3.0945,3.0948,3.0985,3.0988,3.0965,3.1031,3.1004,3.1009,3.1028,3.1036,3.1043,3.1041,3.0934,0,0,0,0,0,3.0887,3.091,3.0915,3.0951,3.0958,3.0956,3.0968,3.0961,3.0972,3.0976,3.098,3.099,3.101,3.1023,3.1042,3.1086,3.1088,3.1107,3.1114,3.1119,3.1124,3.1149,3.1158,3.1063,3.1063,3.1063,0,0,3.0911,3.0918,3.0933,3.0958,3.0966,3.0989,3.096,3.0985,3.1003,3.098,3.1013,3.1016,3.1028,3.1068,3.1086,3.1072,3.1151,3.1125,3.1129,3.1131,3.1154,3.1163,3.1171,3.1066,3.1066,3.1065,0,0,3.0968,3.0976,3.1007,3.1016,3.1029,3.1028,3.1036,3.1044,3.1046,3.108,3.1063,3.1084,3.1118,3.1127,3.1136,3.1198,3.1184,3.1204,3.1239,3.1263,3.1271,3.1277,3.13,3.1308,3.1209,3.1209,3.1209,0,3.0996,3.1032,3.1025,3.1052,3.1064,3.1046,3.1077,3.1086,3.1104,3.1112,3.1097,3.1141,3.1147,3.1189,3.1205,3.1212,3.1221,3.1203,3.127,3.1277,3.1283,3.1304,3.1313,3.1212,3.1211,3.1211,3.1211,0,3.1066,3.1091,3.1115,3.1134,3.1149,3.1178,3.1175,3.1191,3.1184,3.1184,3.1219,3.1226,3.1246,3.1256,3.1248,3.1298,3.1289,3.1272,3.1244,3.1294,3.1314,3.1322,3.1215,3.1214,3.1213,3.1213,0,0,3.1142,3.1158,3.1167,3.1176,3.119,3.1208,3.1238,3.1258,3.1272,3.1285,3.1309,3.1339,3.1325,3.1335,3.1329,3.135,3.14,3.1331,3.1331,3.1344,3.1455,3.1467,3.1477,3.1391,3.1392,3.1393,3.1454,0,3.1199,3.125,3.1245,3.1293,3.1317,3.1301,3.1326,3.1337,3.1339,3.1358,3.136,3.1382,3.1361,3.1367,3.1387,3.1389,3.1422,3.1385,3.1413,3.1414,3.141,3.1487,3.15,3.1557,3.1462,3.1463,3.1464,0,3.1271,3.1289,3.134,3.1352,3.1361,3.1384,3.1403,3.1423,3.1435,3.1435,3.1448,3.1438,3.1467,3.1439,3.148,3.1455,3.1466,3.1469,3.1471,3.1473,3.1442,3.1491,3.1575,3.1583,3.1476,3.1475,3.1474,0,3.1322,3.1358,3.1394,3.1402,3.1416,3.1433,3.1439,3.145,3.1464,3.148,3.1489,3.1508,3.1519,3.1534,3.153,3.151,3.1572,3.1543,3.1572,3.1572,3.1585,3.1585,3.1672,3.1593,3.1593,3.1593,3.1593,0,3.1386,3.1418,3.1417,3.1439,3.1474,3.1469,3.1504,3.1508,3.1519,3.1541,3.1528,3.1549,3.1543,3.1564,3.1561,3.1595,3.16,3.16,3.1599,3.1602,3.1602,3.1608,3.1604,3.1595,3.1595,3.1594,3.1594,0,3.1448,3.1448,3.1486,3.1497,3.1501,3.1527,3.1536,3.1556,3.1558,3.1586,3.1593,3.1594,3.1618,3.1616,3.1643,3.1641,3.1684,3.1678,3.168,3.1678,3.1708,3.1705,3.1802,3.1815,3.1728,3.1729,3.173,0,3.1488,3.1513,3.1527,3.1542,3.155,3.1573,3.1587,3.1583,3.1598,3.1615,3.1634,3.1657,3.1675,3.1715,3.1718,3.1739,3.1733,3.1766,3.1736,3.1738,3.1734,3.1733,3.1735,3.1771,3.1772,3.1773,3.1774,0,3.1561,3.156,3.1581,3.1603,3.162,3.1637,3.1652,3.1664,3.1661,3.1679,3.1704,3.1718,3.1747,3.177,3.179,3.1796,3.1785,3.1784,3.1791,3.1794,3.1794,3.1795,3.1696,3.1781,3.178,3.178,3.1779,3.1779,3.1613,3.1635,3.1649,3.1673,3.1684,3.1699,3.1719,3.1724,3.1745,3.1769,3.1765,3.1793,3.1806,3.1832,3.184,3.1862,3.185,3.1862,3.1864,3.1867,3.1871,3.1791,3.1866,3.1866,3.1865,3.1865,3.1865,0,3.1685,3.1694,3.1716,3.1739,3.1758,3.1747,3.1763,3.178,3.1805,3.1819,3.1838,3.1867,3.189,3.1896,3.1918,3.1935,3.193,3.194,3.1939,3.1941,3.188,3.1871,3.1944,3.1944,3.1944,3.1944,3.1944,3.1944,3.1725,3.1761,3.1763,3.1805,3.1813,3.1842,3.1852,3.1866,3.1877,3.191,3.193,3.1934,3.1945,3.1968,3.1988,3.1989,3.1998,3.2011,3.201,3.1953,3.1945,3.1937,3.1929,3.2013,3.2013,3.2069,3.2069,3.207]}]]